Terminal Aerodrome Forecast
Issued by NWS Indianapolis, IN

Home | Current Version | Previous Version | Text Only | Print | Product List | Glossary On
Versions: 1 2 3 4 5 6 7 8 9 10 11 12 13 14 15 16 17 18 19 20 21 22 23 24 25 26 27
718
FTUS43 KIND 240838 AAB
TAFIND
TAF AMD
KIND 240838Z 2409/2512 28006KT P6SM VCSH SCT040 OVC080
     FM241500 32005KT P6SM -SHRA BKN040 OVC090
     FM241900 32004KT 5SM SHRA VCTS OVC040CB
     FM250000 31005KT 2SM SHRA OVC010=

USA.gov is the U.S. government's official web portal to all federal, state and local government web resources and services.